Time,TemperatureF,DewpointF,PressureIn,WindDirection,WindDirectionDegrees,WindSpeedMPH,WindSpeedGustMPH,Humidity,HourlyPrecipIn,Conditions,Clouds,dailyrainin,SoftwareType,DateUTC
2013-09-08 00:24:00,72.0,63.0,29.98,SSW,202,0.0,0.0,73,0.00,,,0.00,,2013-09-08 04:24:00,
2013-09-08 00:54:00,72.0,63.0,29.98,North,-999,-999.0,-999.0,73,0.00,,,0.00,,2013-09-08 04:54:00,
2013-09-08 01:03:00,72.0,63.0,29.98,North,-999,-999.0,-999.0,73,0.00,,,0.00,,2013-09-08 05:03:00,
2013-09-08 08:52:00,64.0,59.0,30.01,SSW,202,0.0,0.0,85,0.00,,,0.00,,2013-09-08 12:52:00,
2013-09-08 09:21:00,65.0,61.0,30.03,North,-999,-999.0,-999.0,86,0.00,,,0.00,,2013-09-08 13:21:00,
2013-09-08 09:22:00,65.0,61.0,30.03,SSW,202,0.0,0.0,86,0.00,,,0.00,,2013-09-08 13:22:00,
2013-09-08 09:52:00,65.0,61.0,30.03,North,-999,-999.0,-999.0,86,0.00,,,0.00,,2013-09-08 13:52:00,
2013-09-08 10:02:00,65.0,61.0,30.03,North,-999,-999.0,-999.0,86,0.00,,,0.00,,2013-09-08 14:02:00,
2013-09-08 10:11:00,65.0,61.0,30.03,North,-999,-999.0,-999.0,86,0.00,,,0.00,,2013-09-08 14:11:00,
2013-09-08 13:53:00,74.0,64.0,30.03,SE,135,0.0,0.0,70,0.00,,,0.00,,2013-09-08 17:53:00,
2013-09-08 14:22:00,74.0,63.0,30.04,ESE,112,0.0,0.0,68,0.00,,,0.00,,2013-09-08 18:22:00,
2013-09-08 14:52:00,74.0,63.0,30.03,ENE,67,0.0,0.0,68,0.00,,,0.00,,2013-09-08 18:52:00,
2013-09-08 15:52:00,75.0,64.0,30.03,SE,135,0.0,0.0,69,0.00,,,0.00,,2013-09-08 19:52:00,
2013-09-08 16:22:00,76.0,65.0,30.02,South,180,0.0,0.0,70,0.00,,,0.00,,2013-09-08 20:22:00,
2013-09-08 16:53:00,76.0,65.0,30.02,ENE,67,0.0,0.0,70,0.00,,,0.00,,2013-09-08 20:53:00,
2013-09-08 17:22:00,77.0,67.0,30.02,ESE,112,0.0,0.0,71,0.00,,,0.00,,2013-09-08 21:22:00,
2013-09-08 17:54:00,78.0,68.0,30.01,ENE,67,0.0,0.0,71,0.00,,,0.00,,2013-09-08 21:54:00,
2013-09-08 18:25:00,77.0,67.0,30.00,ENE,67,0.0,0.0,71,0.00,,,0.00,,2013-09-08 22:25:00,
2013-09-08 18:53:00,77.0,67.0,30.00,East,90,0.0,0.0,72,0.00,,,0.00,,2013-09-08 22:53:00,
2013-09-08 19:22:00,76.0,66.0,30.01,SE,135,0.0,0.0,72,0.00,,,0.00,,2013-09-08 23:22:00,
2013-09-08 19:52:00,75.0,65.0,30.01,ENE,67,0.0,0.0,72,0.00,,,0.00,,2013-09-08 23:52:00,
2013-09-08 20:22:00,75.0,65.0,30.02,East,90,0.0,0.0,72,0.00,,,0.00,,2013-09-09 00:22:00,
2013-09-08 20:52:00,74.0,65.0,30.02,SE,135,0.0,0.0,73,0.00,,,0.00,,2013-09-09 00:52:00,
2013-09-08 21:21:00,73.0,64.0,30.03,ENE,67,0.0,0.0,74,0.00,,,0.00,,2013-09-09 01:21:00,
2013-09-08 21:52:00,73.0,64.0,30.02,North,-999,-999.0,-999.0,74,0.00,,,0.00,,2013-09-09 01:52:00,
2013-09-08 22:02:00,73.0,64.0,30.02,North,-999,-999.0,-999.0,74,0.00,,,0.00,,2013-09-09 02:02:00,